Weather in Varyegan

Russia / Khanty-Mansi Autonomous Okrug — Yugra     62°00′02″N   76°44′25″E
temp.,
°C
wind,
m/s
gust,
m/s
humid.,
%
clouds,
%
prec.,
mm/h
press.,
hPa
HPBL,
m
13 may, thu
thu1323:00+6ssw11620 0.0 101910
02:00+5sw33674 0.0 101926
05:00+5ssw3864100 0.0 1017177
08:00+9sw51156100 0.0 1015510
11:00+6sw5984100 1.9 1014437
14:00+11nnw10115878 0.2 10161405
17:00+8nnw9125731 0.2 10201318
20:00+5n711500 0.0 1022937
14 may, fri
fri1423:00+3n510530 0.0 1023418
02:00+1nw37655 0.0 1024165
05:00+2nw256246 0.0 1024219
08:00+5wsw454688 0.0 1022582
11:00+10ssw71043100 0.0 1017959
14:00+17wsw9154774 0.1 10121454
17:00+22w815475 0.4 10081539
20:00+17wnw91565100 0.7 1009511
15 may, sat
sat1523:00+13n37828 0.8 1010136
02:00+10n487680 0.0 1012370
05:00+6nne5877100 0.7 1014413
08:00+4ene4682100 0.7 1015439
11:00+5ene4675100 3.6 1015502
14:00+6ene357098 2.3 1016604
17:00+9ne4555100 2.3 1016881
20:00+6ne4761100 0.0 1018408
16 may, sun
sun1623:00+5ene476798 0.0 1018401
02:00+3ene467396 0.0 1019271
05:00+3ene3571100 0.0 1020255
08:00+4e3470100 0.0 1020329
11:00+4ese2372100 0.1 1020284
14:00+4se3681100 0.1 1018353
17:00+4ese3691100 2.5 1016316
20:00+4ese61196100 8.7 1010320
17 may, mon
mon1723:00+5ese61296100 15.3 1008373
02:00+5e4896100 0.6 1007330
05:00+5ene3696100 0.6 1009306
08:00+6e359399 0.0 1010308
11:00+9se4581100 0.0 1009639
14:00+9se4582100 0.1 1009621
17:00+8ese5988100 0.2 1007416
20:00+7ese5991100 0.0 1006336